Theta_e
290 291 291 292 294 297 298 299 296 299 298 299 298 299 302 305 307 307 308 305 304 303 302 302 302 303 304 303 303 305 304 301 301 303 302 303 303 303 304 296 295 296 294 297
291 290 291 291 294 295 298 298 299 301 298 292 293 297 301 304 305 306 306 304 304 304 302 303 303 304 303 303 303 304 303 301 302 303 302 301 304 305 302 300 299 298 295 296
291 290 290 291 292 295 296 298 295 299 301 298 297 299 300 302 303 304 304 305 304 304 304 303 303 303 303 304 304 305 304 301 302 303 303 301 302 304 303 303 303 303 300 302
292 291 289 290 291 294 295 297 298 297 302 301 296 298 298 300 301 303 304 304 304 303 302 304 303 303 303 302 305 302 302 304 303 303 304 301 301 304 304 302 301 302 302 302
292 292 290 290 290 293 293 295 298 299 300 301 300 298 299 299 300 303 301 303 303 303 304 304 303 302 301 302 301 302 300 302 301 297 303 303 303 302 304 303 303 303 305 304
291 292 291 290 290 291 293 293 294 295 299 300 301 301 300 300 300 300 303 301 302 302 302 303 304 303 303 301 300 301 300 300 301 302 302 303 302 302 304 304 302 303 304 302
291 291 292 291 289 291 291 293 293 294 298 299 300 301 301 301 301 300 302 301 303 303 304 304 303 302 301 300 299 301 300 300 297 295 300 297 303 301 302 303 303 302 302 301
291 291 291 291 291 291 291 291 292 293 293 294 296 300 301 301 301 301 300 299 303 303 304 300 298 296 298 295 301 301 300 299 295 296 296 300 301 300 301 302 302 302 303 301
291 291 291 291 292 291 292 291 291 292 293 292 295 296 301 299 299 299 300 301 302 302 299 298 295 300 301 302 302 300 298 297 297 290 294 297 300 302 302 302 302 300 303 303
290 291 291 292 292 292 291 291 290 292 293 293 293 294 297 300 300 299 300 301 301 301 297 290 295 302 303 304 303 303 300 293 293 288 293 300 299 303 302 301 302 302 302 303
290 290 290 291 292 292 293 291 290 290 291 292 292 294 295 294 296 300 301 301 300 298 300 297 296 298 301 303 302 303 302 297 294 294 291 299 301 301 303 302 303 304 302 302
289 289 290 290 291 292 293 292 291 290 291 291 292 292 292 292 294 293 296 301 301 300 299 295 295 299 297 301 302 301 304 300 301 300 300 301 302 302 303 304 303 304 303 302
289 289 290 291 291 292 292 293 291 291 290 290 290 290 292 291 292 292 294 298 302 301 301 299 297 301 297 300 300 302 301 301 301 301 302 301 303 304 304 304 305 305 305 303
290 290 290 290 291 291 293 293 292 291 290 289 290 291 290 291 291 292 292 295 297 295 298 301 296 297 299 299 301 301 301 301 300 300 301 303 304 304 305 305 305 305 304 304
289 290 290 290 290 291 292 294 292 291 290 288 290 290 289 290 292 292 293 292 293 295 299 300 298 299 300 297 297 299 300 299 301 300 304 304 304 304 305 304 305 305 305 304
289 289 290 290 291 291 293 291 292 292 291 289 284 289 289 289 290 291 291 293 293 295 299 301 302 303 302 301 301 302 302 303 304 303 304 304 304 304 305 305 306 305 305 305
289 290 290 291 291 292 294 292 292 292 291 289 287 287 289 290 289 289 291 293 295 297 297 299 301 301 301 299 303 302 304 304 304 304 304 303 304 305 306 305 305 305 305 305
290 290 290 291 291 292 294 292 291 291 291 289 285 286 289 291 293 292 291 294 295 297 298 299 300 301 301 303 302 304 304 305 304 304 305 305 305 305 305 305 305 304 304 304
290 291 290 291 292 294 293 293 291 291 291 289 288 286 284 290 295 295 296 297 298 299 299 300 301 302 302 301 303 303 304 304 305 305 305 305 305 305 305 305 305 304 303 303
291 291 292 293 293 293 292 291 291 291 290 289 285 289 285 290 292 293 295 297 297 299 299 301 302 301 302 302 302 302 304 305 305 305 304 304 304 305 304 305 305 305 304 304
292 292 292 292 293 292 291 290 290 289 288 289 289 289 288 290 285 286 291 296 295 296 298 300 301 301 300 302 303 304 304 304 305 304 304 304 304 304 304 305 305 305 305 305
292 292 291 292 290 289 289 289 287 287 285 288 289 289 290 290 291 289 291 294 298 299 300 300 299 300 301 301 301 302 303 304 304 304 304 304 304 304 304 303 304 305 305 305
292 291 291 289 289 289 287 285 287 287 288 289 290 288 290 291 293 292 292 293 296 297 299 300 298 300 302 302 303 302 303 304 304 304 304 304 304 304 304 303 303 304 304 304
290 290 290 289 285 286 287 288 289 289 290 290 290 290 290 291 288 289 292 293 296 299 295 300 296 298 301 302 302 303 303 303 304 304 304 304 304 303 303 302 302 303 303 304
290 289 286 288 288 288 289 289 290 290 290 290 290 291 291 289 290 290 292 294 296 299 298 298 299 299 301 301 302 302 302 302 303 303 303 303 303 302 302 302 302 303 302 303
290 289 288 288 287 284 288 288 289 291 290 291 292 288 286 286 291 292 292 295 294 298 294 299 298 299 300 300 300 301 301 302 303 303 303 303 303 303 302 301 302 302 302 302
290 288 290 289 289 289 289 289 289 290 291 288 287 288 287 290 290 292 293 295 296 295 295 296 299 300 300 300 300 300 301 301 301 301 301 301 300 300 300 301 301 302 302 301
Wind_Speed
16 13 12 14 16 11 10 8 2 5 15 5 1 3 5 2 3 3 4 2 4 7 8 5 5 9 4 11 11 7 1 5 4 2 1 4 4 6 5 5 5 1 4 6
13 12 12 13 12 12 10 5 6 4 22 3 2 4 3 2 2 2 2 2 2 3 7 5 4 5 3 10 6 8 7 1 3 4 5 1 4 4 5 6 3 5 5 5
13 12 12 12 14 14 9 4 1 5 15 6 5 4 4 4 4 4 4 3 2 2 2 5 6 4 1 3 4 7 6 4 6 7 5 5 5 6 8 6 3 4 5 3
14 13 11 12 12 12 7 6 4 4 4 8 4 4 2 6 5 5 3 3 4 2 3 3 4 3 3 5 8 4 4 4 4 3 3 4 5 9 13 11 6 6 4 8
16 14 12 11 12 14 11 4 3 2 2 8 15 8 5 5 5 5 5 3 1 3 3 4 8 7 4 5 1 3 2 3 3 3 1 2 3 8 14 13 5 7 4 6
14 14 13 10 12 14 3 5 10 5 5 5 8 8 12 5 8 6 9 5 4 1 3 4 7 8 10 8 9 6 7 6 3 3 1 1 6 13 15 10 6 12 11 9
15 14 15 13 12 16 14 8 8 3 3 6 8 7 14 15 9 10 3 14 2 4 3 14 15 16 14 10 6 5 7 6 3 3 2 0 7 1 9 17 7 12 4 8
17 15 15 15 13 15 16 15 11 3 2 4 6 10 7 14 17 10 9 18 2 5 3 3 4 4 5 5 3 3 1 5 3 5 3 6 6 5 8 10 13 19 21 10
17 17 14 16 17 14 16 15 13 5 1 3 1 6 11 4 4 4 9 21 15 4 2 3 5 5 6 4 3 5 5 5 4 3 5 7 5 1 8 7 7 10 31 23
16 16 16 16 18 18 18 14 15 9 4 6 4 2 5 4 5 3 3 6 7 16 2 2 3 4 5 7 11 6 3 3 6 2 3 7 7 2 11 5 6 6 19 27
17 18 18 16 18 19 24 20 17 13 4 10 12 7 5 11 5 2 1 2 3 2 5 3 4 3 6 4 7 8 7 7 4 3 3 6 12 5 9 4 5 9 9 30
18 19 19 19 18 19 24 25 22 15 9 8 9 13 12 14 16 9 4 3 2 6 3 1 2 2 1 5 4 2 4 7 7 9 7 5 9 6 11 5 7 8 8 24
18 19 20 19 18 18 24 30 25 18 9 15 20 25 19 19 18 15 6 5 2 5 9 1 2 4 4 4 4 5 3 5 4 4 6 12 15 13 13 14 12 9 7 13
21 19 20 20 19 19 20 34 37 24 7 3 11 14 20 21 24 23 27 27 22 22 12 4 2 2 7 5 4 5 5 12 7 3 6 7 14 16 16 19 16 14 11 15
24 22 21 21 20 20 20 30 29 30 20 6 5 11 19 21 19 17 20 28 27 15 4 3 3 3 2 1 2 5 9 6 6 5 15 10 11 14 13 18 18 19 16 16
27 24 22 21 19 17 20 11 35 33 26 3 1 6 15 17 16 19 23 26 24 15 5 5 5 4 2 3 5 9 25 22 26 11 22 21 19 13 9 16 19 19 19 15
27 25 23 22 20 20 24 6 7 36 25 7 2 6 7 5 14 23 21 23 19 17 8 7 8 9 5 2 4 8 25 28 26 23 21 14 19 14 15 15 19 21 20 18
27 26 23 22 20 22 24 24 13 28 26 9 2 4 6 6 7 8 18 18 19 15 11 6 4 7 7 5 8 26 22 26 29 29 29 28 23 22 19 17 20 25 26 25
27 23 19 19 26 23 21 23 13 28 12 11 6 4 4 6 7 9 10 19 6 12 8 7 9 5 7 7 11 19 27 24 24 26 28 28 28 27 23 20 22 30 31 32
28 21 14 10 14 24 23 21 23 9 9 8 4 9 3 3 2 3 3 9 6 6 8 11 7 13 31 19 21 24 32 33 31 25 22 21 22 23 23 23 25 27 35 35
30 18 13 8 29 24 8 7 7 7 4 9 11 24 5 6 2 3 3 5 3 3 5 8 6 10 11 27 23 21 27 30 32 37 34 32 28 22 20 23 25 30 34 37
29 18 20 28 5 5 4 3 4 4 6 9 8 15 17 5 8 3 3 2 4 6 11 7 5 12 24 32 41 43 36 28 28 30 34 38 34 31 26 21 25 27 28 31
29 10 7 7 4 3 8 10 4 5 8 11 11 3 9 9 8 2 1 4 6 4 5 4 6 21 24 31 35 41 43 42 38 35 34 35 36 31 28 26 20 25 27 29
7 8 7 5 4 5 5 4 5 7 12 21 18 7 6 7 3 3 4 6 2 4 2 8 4 16 31 32 36 37 39 42 42 40 36 36 34 30 25 21 22 23 28 28
5 7 6 6 6 6 8 12 16 20 24 23 10 3 5 1 3 4 3 3 5 6 7 13 28 21 31 31 32 33 34 37 43 43 40 38 35 34 29 27 24 25 27 31
5 5 4 3 4 1 5 13 12 22 26 19 7 4 3 5 4 4 7 6 8 4 2 12 19 31 30 34 38 35 33 36 37 40 41 39 39 38 36 31 30 30 29 29
4 2 4 10 9 11 16 17 21 24 26 4 3 6 9 2 3 6 6 13 4 11 31 21 24 33 32 30 31 34 36 36 34 32 30 30 31 31 29 31 31 30 28 28
Wind_Direction
304 290 288 284 281 266 272 235 282 180 178 153 231 186 201 276 283 272 276 248 179 172 163 141 181 184 210 174 150 138 123 117 130 173 260 178 144 159 138 121 249 105 145 273
293 286 286 283 280 250 249 240 231 263 185 180 231 269 271 267 301 318 327 274 66 166 169 132 162 159 329 162 149 160 178 73 91 7 357 4 185 173 119 110 106 200 137 260
276 288 284 270 267 261 259 252 224 196 196 226 173 172 229 219 242 272 301 286 281 145 121 27 151 129 75 137 122 124 111 125 153 182 200 149 183 157 163 133 138 169 223 231
277 275 282 263 268 274 268 235 245 182 199 203 188 191 255 187 210 226 218 285 249 88 103 64 123 106 117 45 130 81 109 147 151 182 208 148 172 172 178 193 167 172 227 202
275 264 271 258 255 265 269 276 285 232 240 170 202 192 218 200 205 196 228 214 300 173 162 180 197 142 176 176 126 107 20 150 96 343 83 202 229 200 194 205 181 253 213 240
268 263 259 259 241 251 251 275 289 302 210 186 190 210 215 208 176 261 245 230 234 174 245 271 261 178 166 170 149 146 135 135 112 232 334 98 316 214 194 203 193 193 207 212
268 256 256 254 238 247 248 237 285 330 294 209 205 197 207 226 217 227 290 236 121 305 144 102 99 86 87 89 61 136 135 112 86 165 53 13 243 278 203 208 202 210 186 181
259 256 247 247 244 237 247 262 261 233 276 338 301 227 210 228 226 227 247 263 254 229 262 66 45 359 28 333 56 74 88 123 102 140 188 288 267 197 171 177 246 214 214 185
252 256 254 245 240 234 240 250 251 233 180 233 268 325 234 172 176 181 238 250 246 302 83 110 164 181 165 191 95 40 68 57 111 116 146 203 242 298 167 121 283 220 206 201
259 257 254 248 240 233 228 237 241 231 268 251 264 262 325 284 182 164 204 214 206 209 143 123 165 212 173 162 157 159 119 34 146 149 193 283 236 219 156 110 238 318 217 202
260 257 255 250 248 236 222 232 239 221 244 271 280 267 264 313 345 137 45 128 224 102 172 161 208 167 202 134 158 169 152 146 179 95 86 265 192 135 172 224 311 310 228 197
260 255 254 251 243 240 224 226 235 231 228 262 248 248 249 267 286 281 281 276 276 197 148 211 107 154 137 150 191 170 181 175 176 181 203 239 192 203 213 311 299 311 244 207
263 256 251 248 246 241 228 225 225 202 226 270 268 259 251 250 249 261 242 266 244 93 16 243 247 219 135 169 204 122 245 154 160 116 232 232 238 240 255 255 268 283 264 225
260 258 251 248 247 241 234 222 221 212 169 206 265 273 261 259 245 242 248 251 269 298 312 278 206 211 195 193 177 172 183 158 155 268 281 275 261 250 272 246 241 248 230 224
257 254 254 251 248 241 237 238 234 214 197 195 264 270 263 254 235 246 243 238 246 260 255 231 234 226 169 325 90 201 183 160 172 207 211 211 247 278 292 236 234 223 223 214
251 250 249 249 245 237 242 189 223 210 211 213 329 275 275 266 253 248 242 240 231 229 232 206 231 284 345 202 226 190 198 203 206 205 227 228 253 261 275 253 239 222 217 224
246 244 244 242 239 231 229 209 200 201 197 158 291 286 266 302 260 248 244 235 221 220 219 228 211 247 292 282 240 208 210 212 214 220 236 227 238 247 263 266 249 224 214 211
240 241 239 238 239 229 234 227 159 175 177 155 166 261 306 211 216 206 219 219 212 221 209 223 199 162 178 244 239 229 224 220 223 224 232 243 251 253 258 251 234 217 210 202
229 231 234 241 234 230 223 209 185 166 167 173 183 187 238 208 231 214 203 206 201 212 203 208 193 188 211 195 214 223 216 213 220 227 233 240 244 248 250 238 229 215 209 202
212 212 212 224 203 214 174 143 163 177 192 214 183 193 254 220 348 302 271 199 225 201 213 176 213 228 232 224 238 258 239 227 222 223 223 226 230 233 229 227 227 219 217 217
195 188 204 171 150 152 164 147 147 162 196 207 197 199 203 202 134 214 239 305 212 211 204 191 205 238 219 217 210 228 238 232 228 229 235 235 233 227 233 231 227 225 222 224
184 166 144 151 161 115 136 162 125 189 210 190 176 207 205 204 218 151 211 205 257 245 155 196 230 244 232 221 219 224 229 228 225 227 232 232 233 245 251 250 236 232 231 230
155 154 142 145 188 149 180 181 194 195 175 170 157 153 158 179 197 172 169 188 252 288 177 219 225 226 203 210 215 219 220 221 231 228 231 239 242 243 237 235 235 228 229 228
135 151 137 185 200 225 189 177 144 170 148 165 160 136 160 170 127 205 206 226 289 263 240 212 231 189 206 203 206 211 218 221 223 222 225 229 230 224 222 225 232 230 223 224
121 138 188 196 200 185 201 187 159 164 172 155 144 138 151 167 212 199 207 239 226 250 217 213 220 203 192 195 201 206 214 218 221 224 226 227 229 225 230 241 243 233 226 219
140 172 118 112 115 24 158 189 163 163 160 143 146 130 119 227 196 206 213 232 228 258 270 289 235 207 203 202 211 211 219 224 225 226 229 232 234 239 247 246 236 231 224 221
160 216 187 158 166 180 185 189 182 167 152 155 144 152 199 222 226 205 210 249 287 331 321 277 212 205 203 206 209 215 221 227 231 235 240 245 248 246 245 236 223 213 218 223